Mexico City Airport, Mexico

2:28 AM CDT on July 24, 2016 (GMT -0500)
Lic Benito Juarez International

Weather History for MMMX - July, 2013

Change the Weather History Date:

Tuesday, July 30, 2013

  Actual Average Record
Temperature  
Mean Temperature 68 °F -  
Max Temperature 80 °F 72 °F 89 °F (1998)
Min Temperature 55 °F 53 °F 51 °F (2001)
Cooling Degree Days 2    
Growing Degree Days 18 (Base 50)    
Moisture  
Dew Point 46 °F    
Average Humidity 53    
Maximum Humidity 82    
Minimum Humidity 17    
Precipitation  
Precipitation 1.05 in - - ()
Sea Level Pressure  
Sea Level Pressure 30.28 in    
Wind  
Wind Speed 6 mph ()    
Max Wind Speed 15 mph    
Max Gust Speed -    
Visibility 8.9 miles    
Events Rain , Thunderstorm    
Averages and records for this station are not official NWS values.
T = Trace of Precipitation, MM = Missing Value Source: Averaged Metar Reports

Daily Weather History Graph

Daily Weather History Graph

Search for Another Location

Airport or City:

Trip Planner

Search our weather history database for the weather conditions in past years. The results will help you decide how hot, cold, wet, or windy it might be!

Date:

Astronomy

Jul. 30, 2013 Rise Set
Actual Time 7:12 AM CDT 8:13 PM CDT
Civil Twilight 6:48 AM CDT 8:36 PM CDT
Nautical Twilight 6:20 AM CDT 9:04 PM CDT
Astronomical Twilight 5:52 AM CDT 9:32 PM CDT
Moon 1:24 AM CDT (7/30) 2:37 PM CDT (7/30)
Length of Visible Light 13h 48m
Length of Day
13h 01m
Last Quarter, 41% of the Moon is Illuminated
Jul 30
Last Quarter
Aug 6
New
Aug 14
First Quarter
Aug 20
Full
Aug 28
Last Quarter

Hourly Weather History & Observations

Time (CDT) Temp. Dew Point Humidity Pressure Visibility Wind Dir Wind Speed Gust Speed Precip Events Conditions
12:44 AM 62.6 °F 48.2 °F 59% 29.88 in 12.0 mi West 10.4 mph - N/A   Scattered Clouds
1:47 AM 60.8 °F 48.2 °F 63% 30.43 in 12.0 mi West 5.8 mph - N/A   Clear
2:48 AM 60.8 °F 48.2 °F 63% 30.42 in 12.0 mi WNW 10.4 mph - N/A   Clear
3:44 AM 59.0 °F 48.2 °F 67% 29.84 in 12.0 mi WNW 3.5 mph - N/A   Clear
4:42 AM 55.4 °F 50.0 °F 82% 30.42 in 12.0 mi NNE 4.6 mph - N/A   Clear
5:45 AM 55.4 °F 50.0 °F 82% 30.42 in 12.0 mi Calm Calm - N/A   Scattered Clouds
6:44 AM 57.2 °F 50.0 °F 77% 29.87 in 9.0 mi ENE 4.6 mph - N/A   Partly Cloudy
7:22 AM 55.4 °F 50.0 °F 82% 30.43 in 6.0 mi Calm Calm - N/A   Clear
7:42 AM 57.2 °F 50.0 °F 77% 30.44 in 6.0 mi East 5.8 mph - N/A   Clear
8:22 AM 59.0 °F 50.0 °F 72% 30.45 in 6.0 mi ENE 4.6 mph - N/A   Clear
8:42 AM 59.0 °F 50.0 °F 72% 30.45 in 6.0 mi ENE 4.6 mph - N/A   Clear
9:21 AM 62.6 °F 51.8 °F 68% 30.46 in 5.0 mi ENE 5.8 mph - N/A   Scattered Clouds
9:23 AM 62.6 °F 51.8 °F 68% 30.46 in 5.0 mi ENE 5.8 mph - N/A   Scattered Clouds
9:43 AM 62.6 °F 51.8 °F 68% 29.95 in 5.0 mi ENE 6.9 mph - N/A   Scattered Clouds
10:24 AM 64.4 °F 51.8 °F 64% 30.46 in 5.0 mi Calm Calm - N/A   Scattered Clouds
10:45 AM 68.0 °F 50.0 °F 52% 30.46 in 5.0 mi Calm Calm - N/A   Scattered Clouds
10:47 AM 68.0 °F 50.0 °F 52% 30.46 in 5.0 mi Calm Calm - N/A   Scattered Clouds
11:44 AM 69.8 °F 48.2 °F 46% 30.46 in 5.0 mi NNW 5.8 mph - N/A   Scattered Clouds
12:45 PM 71.6 °F 44.6 °F 38% 29.91 in 6.0 mi NNE 9.2 mph - N/A   Scattered Clouds
1:35 PM 75.2 °F 41.0 °F 29% 30.42 in 6.0 mi NE 8.1 mph - N/A   Scattered Clouds
1:43 PM 75.2 °F 41.0 °F 29% 30.42 in 6.0 mi NNE 8.1 mph - N/A   Scattered Clouds
2:46 PM 77.0 °F 39.2 °F 26% 30.39 in 10.0 mi North 5.8 mph - N/A   Scattered Clouds
3:46 PM 78.8 °F 32.0 °F 18% 29.81 in 12.0 mi NW 4.6 mph - N/A   Scattered Clouds
4:44 PM 80.6 °F 32.0 °F 17% 30.32 in 12.0 mi North 12.7 mph - N/A   Scattered Clouds
5:43 PM 80.6 °F 32.0 °F 17% 30.30 in 12.0 mi North 6.9 mph - N/A   Scattered Clouds
6:09 PM 77.0 °F 33.8 °F 21% 30.30 in 12.0 mi North 13.8 mph - N/A   Mostly Cloudy
6:49 PM 77.0 °F 33.8 °F 21% 29.77 in 12.0 mi North 9.2 mph - N/A   Mostly Cloudy
7:44 PM 75.2 °F 42.8 °F 31% 30.32 in 10.0 mi North 13.8 mph - N/A   Mostly Cloudy
8:00 PM 71.6 °F 42.8 °F 35% - 8.0 mi ESE 15.0 mph - N/A   Mostly Cloudy
8:12 PM 69.8 °F 50.0 °F 49% 3.03 in 7.0 mi SE 12.7 mph - N/A Rain , Thunderstorm Light Thunderstorms and Rain
8:24 PM 66.2 °F 50.0 °F 56% 3.03 in 6.0 mi South 12.7 mph - N/A Rain , Thunderstorm Light Thunderstorms and Rain
8:45 PM 68.0 °F 48.2 °F 49% 30.35 in 8.0 mi WSW 6.9 mph - N/A Thunderstorm Mostly Cloudy
8:52 PM 66.2 °F 51.8 °F 60% 30.35 in 8.0 mi WSW 9.2 mph - N/A Thunderstorm Mostly Cloudy
9:32 PM 64.4 °F 53.6 °F 68% 30.38 in 12.0 mi South 10.4 mph - N/A   Mostly Cloudy
9:49 PM 64.4 °F 53.6 °F 68% 29.86 in 14.0 mi South 10.4 mph - N/A   Mostly Cloudy
10:47 PM 64.4 °F 50.0 °F 59% 30.39 in 14.0 mi NW 6.9 mph - N/A   Scattered Clouds
11:42 PM 64.4 °F 50.0 °F 59% 30.43 in 14.0 mi WNW 8.1 mph - N/A   Scattered Clouds